Time,TemperatureF,DewpointF,PressureIn,WindDirection,WindDirectionDegrees,WindSpeedMPH,WindSpeedGustMPH,Humidity,HourlyPrecipIn,Conditions,Clouds,dailyrainin,SoftwareType,DateUTC
2013-08-21 00:01:00,79.2,58.4,27.31,North,0,2.7,5.4,49,0.00,,,0.00,WUHU216HW,2013-08-21 07:01:00,
2013-08-21 00:06:00,79.2,58.4,27.31,NW,315,3.4,4.7,49,0.00,,,0.00,WUHU216HW,2013-08-21 07:06:00,
2013-08-21 00:11:00,79.0,58.2,27.31,North,0,2.2,4.5,49,0.00,,,0.00,WUHU216HW,2013-08-21 07:11:00,
2013-08-21 00:16:00,79.0,58.2,27.31,North,0,2.7,6.0,49,0.00,,,0.00,WUHU216HW,2013-08-21 07:16:00,
2013-08-21 00:21:00,79.0,57.6,27.31,SSE,158,2.5,6.0,48,0.00,,,0.00,WUHU216HW,2013-08-21 07:21:00,
2013-08-21 00:26:00,79.0,57.6,27.31,NNW,338,3.1,4.0,48,0.00,,,0.00,WUHU216HW,2013-08-21 07:26:00,
2013-08-21 00:31:00,79.0,57.6,27.30,NNE,23,2.5,5.4,48,0.00,,,0.00,WUHU216HW,2013-08-21 07:31:00,
2013-08-21 00:36:00,79.0,58.2,27.30,North,0,2.9,5.4,49,0.00,,,0.00,WUHU216HW,2013-08-21 07:36:00,
2013-08-21 00:41:00,78.8,58.1,27.30,NW,315,4.7,4.7,49,0.00,,,0.00,WUHU216HW,2013-08-21 07:41:00,
2013-08-21 00:46:00,78.8,58.1,27.30,NW,315,2.9,4.9,49,0.00,,,0.00,WUHU216HW,2013-08-21 07:46:00,
2013-08-21 00:51:00,78.8,58.1,27.30,NW,315,2.7,4.9,49,0.00,,,0.00,WUHU216HW,2013-08-21 07:51:00,
2013-08-21 00:56:00,78.8,58.1,27.30,North,0,2.7,4.7,49,0.00,,,0.00,WUHU216HW,2013-08-21 07:56:00,
2013-08-21 01:01:00,78.8,58.1,27.30,North,0,3.6,4.9,49,0.00,,,0.00,WUHU216HW,2013-08-21 08:01:00,
2013-08-21 01:06:00,78.7,58.5,27.30,WNW,293,4.0,4.9,50,0.00,,,0.00,WUHU216HW,2013-08-21 08:06:00,
2013-08-21 01:11:00,78.5,58.3,27.30,NW,315,5.4,5.4,50,0.00,,,0.00,WUHU216HW,2013-08-21 08:11:00,
2013-08-21 01:16:00,78.5,58.3,27.30,NNW,338,0.7,5.4,50,0.00,,,0.00,WUHU216HW,2013-08-21 08:16:00,
2013-08-21 01:21:00,78.5,57.8,27.30,North,0,2.9,5.4,49,0.00,,,0.00,WUHU216HW,2013-08-21 08:21:00,
2013-08-21 01:26:00,78.5,58.3,27.29,NNW,338,2.5,5.4,50,0.00,,,0.00,WUHU216HW,2013-08-21 08:26:00,
2013-08-21 01:31:00,78.5,58.3,27.29,NNE,23,3.4,5.4,50,0.00,,,0.00,WUHU216HW,2013-08-21 08:31:00,
2013-08-21 01:36:00,78.5,58.3,27.29,NNW,338,2.0,5.4,50,0.00,,,0.00,WUHU216HW,2013-08-21 08:36:00,
2013-08-21 01:41:00,78.3,58.7,27.29,WNW,293,1.8,4.7,51,0.00,,,0.00,WUHU216HW,2013-08-21 08:41:00,
2013-08-21 01:46:00,78.1,58.1,27.29,NNW,338,2.7,4.7,50,0.00,,,0.00,WUHU216HW,2013-08-21 08:46:00,
2013-08-21 01:51:00,78.1,58.1,27.29,NW,315,3.4,4.3,50,0.00,,,0.00,WUHU216HW,2013-08-21 08:51:00,
2013-08-21 01:56:00,78.1,58.6,27.29,NE,45,2.5,4.0,51,0.00,,,0.00,WUHU216HW,2013-08-21 08:56:00,
2013-08-21 02:01:00,78.1,58.6,27.29,NE,45,2.2,4.0,51,0.00,,,0.00,WUHU216HW,2013-08-21 09:01:00,
2013-08-21 02:06:00,78.1,58.6,27.29,NNW,338,5.4,5.4,51,0.00,,,0.00,WUHU216HW,2013-08-21 09:06:00,
2013-08-21 02:11:00,78.1,58.6,27.28,NW,315,2.9,5.4,51,0.00,,,0.00,WUHU216HW,2013-08-21 09:11:00,
2013-08-21 02:16:00,78.1,59.0,27.28,NNW,338,2.0,5.4,52,0.00,,,0.00,WUHU216HW,2013-08-21 09:16:00,
2013-08-21 02:21:00,78.1,59.0,27.28,NNW,338,2.5,4.7,52,0.00,,,0.00,WUHU216HW,2013-08-21 09:21:00,
2013-08-21 02:26:00,78.1,59.0,27.28,North,0,1.8,5.6,52,0.00,,,0.00,WUHU216HW,2013-08-21 09:26:00,
2013-08-21 02:31:00,78.1,59.0,27.28,North,0,3.4,5.6,52,0.00,,,0.00,WUHU216HW,2013-08-21 09:31:00,
2013-08-21 02:36:00,78.1,59.0,27.28,NW,315,2.2,5.1,52,0.00,,,0.00,WUHU216HW,2013-08-21 09:36:00,
2013-08-21 02:41:00,78.3,59.2,27.28,NNE,23,2.2,5.4,52,0.00,,,0.00,WUHU216HW,2013-08-21 09:41:00,
2013-08-21 02:46:00,78.3,59.2,27.27,NW,315,4.0,5.4,52,0.00,,,0.00,WUHU216HW,2013-08-21 09:46:00,
2013-08-21 02:51:00,78.5,58.9,27.27,NW,315,2.0,4.9,51,0.00,,,0.00,WUHU216HW,2013-08-21 09:51:00,
2013-08-21 02:56:00,78.5,58.9,27.27,NNW,338,2.0,4.0,51,0.00,,,0.00,WUHU216HW,2013-08-21 09:56:00,
2013-08-21 03:01:00,78.5,58.9,27.27,NNE,23,2.5,4.0,51,0.00,,,0.00,WUHU216HW,2013-08-21 10:01:00,
2013-08-21 03:06:00,78.5,58.3,27.27,North,0,0.7,3.4,50,0.00,,,0.00,WUHU216HW,2013-08-21 10:06:00,
2013-08-21 03:11:00,78.7,58.5,27.27,NNW,338,1.1,3.4,50,0.00,,,0.00,WUHU216HW,2013-08-21 10:11:00,
2013-08-21 03:16:00,78.8,58.1,27.27,NW,315,2.5,3.4,49,0.00,,,0.00,WUHU216HW,2013-08-21 10:16:00,
2013-08-21 03:21:00,79.0,58.2,27.27,NNW,338,2.5,3.4,49,0.00,,,0.00,WUHU216HW,2013-08-21 10:21:00,
2013-08-21 03:26:00,79.2,57.8,27.27,NNW,338,2.7,4.5,48,0.00,,,0.00,WUHU216HW,2013-08-21 10:26:00,
2013-08-21 03:31:00,79.4,58.0,27.27,North,0,2.2,4.5,48,0.00,,,0.00,WUHU216HW,2013-08-21 10:31:00,
2013-08-21 03:36:00,79.4,58.0,27.27,West,270,1.8,4.5,48,0.00,,,0.00,WUHU216HW,2013-08-21 10:36:00,
2013-08-21 03:41:00,79.4,58.0,27.27,North,0,2.5,4.3,48,0.00,,,0.00,WUHU216HW,2013-08-21 10:41:00,
2013-08-21 03:46:00,79.2,57.8,27.27,NE,45,0.9,4.3,48,0.00,,,0.00,WUHU216HW,2013-08-21 10:46:00,
2013-08-21 03:51:00,79.2,57.8,27.27,NW,315,2.2,3.4,48,0.00,,,0.00,WUHU216HW,2013-08-21 10:51:00,
2013-08-21 03:56:00,79.0,58.9,27.27,NNW,338,0.4,5.4,50,0.00,,,0.00,WUHU216HW,2013-08-21 10:56:00,
2013-08-21 04:01:00,78.5,60.0,27.28,NNE,23,1.1,5.4,53,0.00,,,0.00,WUHU216HW,2013-08-21 11:01:00,
2013-08-21 04:06:00,77.8,59.8,27.28,NNE,23,1.3,3.4,54,0.00,,,0.00,WUHU216HW,2013-08-21 11:06:00,
2013-08-21 04:11:00,77.4,60.0,27.28,NNW,338,1.1,2.5,55,0.00,,,0.00,WUHU216HW,2013-08-21 11:11:00,
2013-08-21 04:16:00,77.2,59.8,27.28,North,0,1.6,1.8,55,0.00,,,0.00,WUHU216HW,2013-08-21 11:16:00,
2013-08-21 04:21:00,77.0,59.6,27.28,NNW,338,0.4,1.8,55,0.00,,,0.00,WUHU216HW,2013-08-21 11:21:00,
2013-08-21 04:26:00,77.0,60.1,27.27,North,0,2.5,2.5,56,0.00,,,0.00,WUHU216HW,2013-08-21 11:26:00,
2013-08-21 04:31:00,77.0,60.1,27.27,North,0,1.8,3.4,56,0.00,,,0.00,WUHU216HW,2013-08-21 11:31:00,
2013-08-21 04:36:00,77.0,60.1,27.27,North,0,1.8,3.6,56,0.00,,,0.00,WUHU216HW,2013-08-21 11:36:00,
2013-08-21 04:41:00,77.0,60.1,27.27,NNW,338,1.1,3.6,56,0.00,,,0.00,WUHU216HW,2013-08-21 11:41:00,
2013-08-21 04:46:00,77.0,59.6,27.27,NNW,338,0.7,2.9,55,0.00,,,0.00,WUHU216HW,2013-08-21 11:46:00,
2013-08-21 04:51:00,77.0,60.1,27.27,NNE,23,1.8,2.5,56,0.00,,,0.00,WUHU216HW,2013-08-21 11:51:00,
2013-08-21 04:56:00,77.2,59.8,27.27,North,0,1.1,2.7,55,0.00,,,0.00,WUHU216HW,2013-08-21 11:56:00,
2013-08-21 05:01:00,77.2,59.8,27.27,North,0,0.7,4.3,55,0.00,,,0.00,WUHU216HW,2013-08-21 12:01:00,
2013-08-21 05:06:00,77.2,59.8,27.27,SE,135,0.7,4.3,55,0.00,,,0.00,WUHU216HW,2013-08-21 12:06:00,
2013-08-21 05:11:00,77.0,59.6,27.28,East,90,1.8,2.0,55,0.00,,,0.00,WUHU216HW,2013-08-21 12:11:00,
2013-08-21 05:16:00,77.2,59.8,27.28,NNW,338,1.3,2.5,55,0.00,,,0.00,WUHU216HW,2013-08-21 12:16:00,
2013-08-21 05:21:00,77.2,59.8,27.29,North,0,0.2,2.5,55,0.00,,,0.00,WUHU216HW,2013-08-21 12:21:00,
2013-08-21 05:26:00,77.2,59.8,27.29,ENE,68,0.4,2.5,55,0.00,,,0.00,WUHU216HW,2013-08-21 12:26:00,
2013-08-21 05:31:00,77.2,59.8,27.29,North,0,1.1,2.5,55,0.00,,,0.00,WUHU216HW,2013-08-21 12:31:00,
2013-08-21 05:36:00,77.4,60.0,27.29,NNW,338,3.4,4.0,55,0.00,,,0.00,WUHU216HW,2013-08-21 12:36:00,
2013-08-21 05:41:00,77.6,59.6,27.28,NE,45,3.1,4.9,54,0.00,,,0.00,WUHU216HW,2013-08-21 12:41:00,
2013-08-21 05:46:00,77.8,59.8,27.28,North,0,2.7,4.9,54,0.00,,,0.00,WUHU216HW,2013-08-21 12:46:00,
2013-08-21 05:51:00,77.8,59.8,27.29,North,0,1.1,4.5,54,0.00,,,0.00,WUHU216HW,2013-08-21 12:51:00,
2013-08-21 05:56:00,77.8,59.8,27.29,NNE,23,1.1,3.4,54,0.00,,,0.00,WUHU216HW,2013-08-21 12:56:00,
2013-08-21 06:01:00,77.8,59.8,27.29,NE,45,3.1,3.8,54,0.00,,,0.00,WUHU216HW,2013-08-21 13:01:00,
2013-08-21 06:06:00,77.8,59.8,27.29,North,0,1.8,3.8,54,0.00,,,0.00,WUHU216HW,2013-08-21 13:06:00,
2013-08-21 06:11:00,77.6,60.1,27.29,North,0,1.6,3.1,55,0.00,,,0.00,WUHU216HW,2013-08-21 13:11:00,
2013-08-21 06:16:00,77.6,59.6,27.29,NNW,338,2.0,2.9,54,0.00,,,0.00,WUHU216HW,2013-08-21 13:16:00,
2013-08-21 06:21:00,77.6,60.1,27.29,NE,45,0.4,2.5,55,0.00,,,0.00,WUHU216HW,2013-08-21 13:21:00,
2013-08-21 06:26:00,77.4,60.4,27.29,NNW,338,1.6,3.4,56,0.00,,,0.00,WUHU216HW,2013-08-21 13:26:00,
2013-08-21 06:31:00,77.4,60.0,27.29,North,0,1.8,3.4,55,0.00,,,0.00,WUHU216HW,2013-08-21 13:31:00,
2013-08-21 06:36:00,77.4,60.0,27.29,NNW,338,1.8,3.4,55,0.00,,,0.00,WUHU216HW,2013-08-21 13:36:00,
2013-08-21 06:41:00,77.6,60.1,27.30,North,0,2.0,2.7,55,0.00,,,0.00,WUHU216HW,2013-08-21 13:41:00,
2013-08-21 06:46:00,77.8,59.8,27.30,NNW,338,0.4,2.5,54,0.00,,,0.00,WUHU216HW,2013-08-21 13:46:00,
2013-08-21 06:51:00,78.1,59.6,27.30,North,0,1.8,2.9,53,0.00,,,0.00,WUHU216HW,2013-08-21 13:51:00,
2013-08-21 06:56:00,78.3,59.2,27.30,North,0,1.1,2.9,52,0.00,,,0.00,WUHU216HW,2013-08-21 13:56:00,
2013-08-21 07:01:00,78.7,59.1,27.30,NNW,338,1.1,2.5,51,0.00,,,0.00,WUHU216HW,2013-08-21 14:01:00,
2013-08-21 07:06:00,78.8,58.7,27.30,NNW,338,0.9,2.5,50,0.00,,,0.00,WUHU216HW,2013-08-21 14:06:00,
2013-08-21 07:11:00,79.2,59.1,27.30,NNW,338,0.9,2.7,50,0.00,,,0.00,WUHU216HW,2013-08-21 14:11:00,
2013-08-21 07:16:00,79.4,58.6,27.31,NNW,338,0.7,3.1,49,0.00,,,0.00,WUHU216HW,2013-08-21 14:16:00,
2013-08-21 07:21:00,79.6,59.3,27.31,North,0,1.3,3.1,50,0.00,,,0.00,WUHU216HW,2013-08-21 14:21:00,
2013-08-21 07:26:00,79.6,59.3,27.31,North,0,1.3,4.0,50,0.00,,,0.00,WUHU216HW,2013-08-21 14:26:00,
2013-08-21 07:31:00,79.7,60.0,27.31,NNW,338,2.5,4.0,51,0.00,,,0.00,WUHU216HW,2013-08-21 14:31:00,
2013-08-21 07:36:00,79.7,60.0,27.31,North,0,1.8,4.0,51,0.00,,,0.00,WUHU216HW,2013-08-21 14:36:00,
2013-08-21 07:41:00,79.9,60.2,27.31,NNW,338,3.4,4.0,51,0.00,,,0.00,WUHU216HW,2013-08-21 14:41:00,
2013-08-21 07:46:00,79.9,60.7,27.31,NNW,338,1.6,3.4,52,0.00,,,0.00,WUHU216HW,2013-08-21 14:46:00,
2013-08-21 07:51:00,80.3,60.5,27.32,NNW,338,2.0,3.4,51,0.00,,,0.00,WUHU216HW,2013-08-21 14:51:00,
2013-08-21 07:56:00,80.5,60.7,27.31,North,0,2.0,2.7,51,0.00,,,0.00,WUHU216HW,2013-08-21 14:56:00,
2013-08-21 08:01:00,80.8,61.0,27.32,North,0,0.4,2.7,51,0.00,,,0.00,WUHU216HW,2013-08-21 15:01:00,
2013-08-21 08:06:00,80.6,60.9,27.32,NNE,23,1.6,2.5,51,0.00,,,0.00,WUHU216HW,2013-08-21 15:06:00,
2013-08-21 08:11:00,80.6,60.9,27.32,North,0,1.3,2.5,51,0.00,,,0.00,WUHU216HW,2013-08-21 15:11:00,
2013-08-21 08:16:00,80.5,60.7,27.32,NNW,338,1.6,3.1,51,0.00,,,0.00,WUHU216HW,2013-08-21 15:16:00,
2013-08-21 08:21:00,80.5,60.7,27.32,NNW,338,0.7,3.1,51,0.00,,,0.00,WUHU216HW,2013-08-21 15:21:00,
2013-08-21 08:26:00,80.5,60.7,27.33,NNW,338,1.6,2.5,51,0.00,,,0.00,WUHU216HW,2013-08-21 15:26:00,
2013-08-21 08:31:00,80.5,61.2,27.33,North,0,1.1,1.8,52,0.00,,,0.00,WUHU216HW,2013-08-21 15:31:00,
2013-08-21 08:36:00,80.5,60.7,27.33,NNW,338,1.3,2.5,51,0.00,,,0.00,WUHU216HW,2013-08-21 15:36:00,
2013-08-21 08:41:00,80.6,60.9,27.33,North,0,0.9,2.5,51,0.00,,,0.00,WUHU216HW,2013-08-21 15:41:00,
2013-08-21 08:46:00,80.8,61.0,27.33,North,0,0.9,1.6,51,0.00,,,0.00,WUHU216HW,2013-08-21 15:46:00,
2013-08-21 08:51:00,80.8,61.0,27.32,North,0,1.8,1.8,51,0.00,,,0.00,WUHU216HW,2013-08-21 15:51:00,
2013-08-21 08:56:00,80.8,61.5,27.33,NE,45,1.6,2.7,52,0.00,,,0.00,WUHU216HW,2013-08-21 15:56:00,
2013-08-21 09:01:00,80.8,61.5,27.32,NNE,23,1.1,3.4,52,0.00,,,0.00,WUHU216HW,2013-08-21 16:01:00,
2013-08-21 09:06:00,81.0,61.7,27.33,WNW,293,1.1,3.4,52,0.00,,,0.00,WUHU216HW,2013-08-21 16:06:00,
2013-08-21 09:11:00,81.0,61.7,27.33,NNE,23,2.2,2.7,52,0.00,,,0.00,WUHU216HW,2013-08-21 16:11:00,
2013-08-21 09:16:00,81.4,61.5,27.33,North,0,1.1,2.7,51,0.00,,,0.00,WUHU216HW,2013-08-21 16:16:00,
2013-08-21 09:21:00,81.5,61.7,27.33,North,0,1.6,2.7,51,0.00,,,0.00,WUHU216HW,2013-08-21 16:21:00,
2013-08-21 09:26:00,81.9,61.5,27.33,NNW,338,1.3,2.0,50,0.00,,,0.00,WUHU216HW,2013-08-21 16:26:00,
2013-08-21 09:31:00,82.1,61.6,27.33,NNW,338,0.7,2.2,50,0.00,,,0.00,WUHU216HW,2013-08-21 16:31:00,
2013-08-21 09:36:00,82.3,61.7,27.33,North,0,1.1,2.2,50,0.00,,,0.00,WUHU216HW,2013-08-21 16:36:00,
2013-08-21 09:41:00,82.4,61.3,27.33,NNW,338,1.1,1.6,49,0.00,,,0.00,WUHU216HW,2013-08-21 16:41:00,
2013-08-21 09:46:00,82.6,61.5,27.33,NW,315,2.2,2.2,49,0.00,,,0.00,WUHU216HW,2013-08-21 16:46:00,
2013-08-21 09:51:00,82.8,61.7,27.33,North,0,0.9,2.2,49,0.00,,,0.00,WUHU216HW,2013-08-21 16:51:00,
2013-08-21 09:56:00,82.8,61.0,27.33,NNW,338,1.1,2.2,48,0.00,,,0.00,WUHU216HW,2013-08-21 16:56:00,
2013-08-21 10:01:00,82.8,61.0,27.33,NNW,338,0.4,3.1,48,0.00,,,0.00,WUHU216HW,2013-08-21 17:01:00,
2013-08-21 10:06:00,83.0,61.2,27.33,NNW,338,1.1,3.1,48,0.00,,,0.00,WUHU216HW,2013-08-21 17:06:00,
2013-08-21 10:11:00,83.3,61.6,27.33,ENE,68,3.4,4.0,48,0.00,,,0.00,WUHU216HW,2013-08-21 17:11:00,
2013-08-21 10:16:00,83.7,61.3,27.33,North,0,1.8,4.0,47,0.00,,,0.00,WUHU216HW,2013-08-21 17:16:00,
2013-08-21 10:21:00,84.1,61.0,27.33,NE,45,1.1,3.8,46,0.00,,,0.00,WUHU216HW,2013-08-21 17:21:00,
2013-08-21 10:26:00,84.6,61.6,27.33,North,0,1.8,2.5,46,0.00,,,0.00,WUHU216HW,2013-08-21 17:26:00,
2013-08-21 10:31:00,85.3,61.6,27.33,NNE,23,0.4,3.8,45,0.00,,,0.00,WUHU216HW,2013-08-21 17:31:00,
2013-08-21 10:36:00,85.5,59.9,27.33,North,0,1.8,3.8,42,0.00,,,0.00,WUHU216HW,2013-08-21 17:36:00,
2013-08-21 10:41:00,86.2,60.5,27.33,NNE,23,1.3,2.9,42,0.00,,,0.00,WUHU216HW,2013-08-21 17:41:00,
2013-08-21 10:46:00,86.8,60.9,27.33,North,0,2.0,4.5,42,0.00,,,0.00,WUHU216HW,2013-08-21 17:46:00,
2013-08-21 10:51:00,87.1,60.0,27.33,North,0,1.6,4.5,40,0.00,,,0.00,WUHU216HW,2013-08-21 17:51:00,
2013-08-21 10:56:00,87.5,60.3,27.33,NNW,338,0.7,2.9,40,0.00,,,0.00,WUHU216HW,2013-08-21 17:56:00,
2013-08-21 11:01:00,87.8,59.9,27.33,NNW,338,1.1,2.7,39,0.00,,,0.00,WUHU216HW,2013-08-21 18:01:00,
2013-08-21 11:06:00,88.4,61.1,27.33,NNE,23,0.4,2.7,40,0.00,,,0.00,WUHU216HW,2013-08-21 18:06:00,
2013-08-21 11:11:00,88.6,59.7,27.33,NNW,338,1.1,2.5,38,0.00,,,0.00,WUHU216HW,2013-08-21 18:11:00,
2013-08-21 11:16:00,88.6,60.4,27.33,North,0,0.0,2.5,39,0.00,,,0.00,WUHU216HW,2013-08-21 18:16:00,
2013-08-21 11:21:00,89.1,60.0,27.33,WNW,293,2.0,2.5,38,0.00,,,0.00,WUHU216HW,2013-08-21 18:21:00,
2013-08-21 11:26:00,89.3,60.2,27.33,North,0,2.2,2.9,38,0.00,,,0.00,WUHU216HW,2013-08-21 18:26:00,
2013-08-21 11:31:00,89.3,60.2,27.33,North,0,1.6,2.9,38,0.00,,,0.00,WUHU216HW,2013-08-21 18:31:00,
2013-08-21 11:36:00,89.8,59.1,27.33,NNE,23,1.8,2.9,36,0.00,,,0.00,WUHU216HW,2013-08-21 18:36:00,
2013-08-21 11:41:00,89.6,59.0,27.33,North,0,2.0,2.9,36,0.00,,,0.00,WUHU216HW,2013-08-21 18:41:00,
2013-08-21 11:46:00,90.0,59.2,27.33,North,0,1.8,3.1,36,0.00,,,0.00,WUHU216HW,2013-08-21 18:46:00,
2013-08-21 11:51:00,90.4,59.6,27.33,NE,45,0.2,3.1,36,0.00,,,0.00,WUHU216HW,2013-08-21 18:51:00,
2013-08-21 11:56:00,91.1,60.2,27.32,West,270,0.4,1.8,36,0.00,,,0.00,WUHU216HW,2013-08-21 18:56:00,
2013-08-21 12:01:00,92.2,60.4,27.32,SSE,158,0.9,1.3,35,0.00,,,0.00,WUHU216HW,2013-08-21 19:01:00,
2013-08-21 12:06:00,92.7,60.0,27.32,NNW,338,0.7,1.3,34,0.00,,,0.00,WUHU216HW,2013-08-21 19:06:00,
2013-08-21 12:11:00,93.2,60.5,27.32,NNW,338,0.7,1.1,34,0.00,,,0.00,WUHU216HW,2013-08-21 19:11:00,
2013-08-21 12:16:00,93.8,60.9,27.32,ESE,113,0.2,1.1,34,0.00,,,0.00,WUHU216HW,2013-08-21 19:16:00,
2013-08-21 12:21:00,94.1,59.7,27.32,SE,135,1.1,3.1,32,0.00,,,0.00,WUHU216HW,2013-08-21 19:21:00,
2013-08-21 12:26:00,94.5,59.2,27.32,WNW,293,1.1,3.1,31,0.00,,,0.00,WUHU216HW,2013-08-21 19:26:00,
2013-08-21 12:31:00,95.0,59.7,27.32,NW,315,0.9,3.4,31,0.00,,,0.00,WUHU216HW,2013-08-21 19:31:00,
2013-08-21 12:36:00,95.8,58.3,27.32,ENE,68,2.0,3.4,29,0.00,,,0.00,WUHU216HW,2013-08-21 19:36:00,
2013-08-21 12:41:00,95.8,59.4,27.31,ENE,68,0.7,2.5,30,0.00,,,0.00,WUHU216HW,2013-08-21 19:41:00,
2013-08-21 12:46:00,95.6,56.0,27.31,South,180,1.8,4.0,27,0.00,,,0.00,WUHU216HW,2013-08-21 19:46:00,
2013-08-21 12:50:00,95.4,58.1,27.31,SSE,158,1.8,4.0,29,0.00,,,0.00,WUHU216HW,2013-08-21 19:50:00,
2013-08-21 12:55:00,96.8,57.0,27.31,SSE,158,2.5,3.1,27,0.00,,,0.00,WUHU216HW,2013-08-21 19:55:00,
2013-08-21 13:00:00,97.6,57.6,27.31,South,180,1.6,4.0,27,0.00,,,0.00,WUHU216HW,2013-08-21 20:00:00,
2013-08-21 13:05:00,96.1,56.4,27.31,SW,225,1.3,4.9,27,0.00,,,0.00,WUHU216HW,2013-08-21 20:05:00,
2013-08-21 13:10:00,96.5,57.8,27.31,NNE,23,0.0,4.9,28,0.00,,,0.00,WUHU216HW,2013-08-21 20:10:00,
2013-08-21 13:15:00,97.6,57.6,27.31,SSW,203,1.8,4.5,27,0.00,,,0.00,WUHU216HW,2013-08-21 20:15:00,
2013-08-21 13:20:00,96.5,56.7,27.31,SE,135,3.1,5.1,27,0.00,,,0.00,WUHU216HW,2013-08-21 20:20:00,
2013-08-21 13:25:00,96.3,58.8,27.30,South,180,2.9,5.1,29,0.00,,,0.00,WUHU216HW,2013-08-21 20:25:00,
2013-08-21 13:30:00,96.8,57.0,27.30,SSW,203,4.0,4.7,27,0.00,,,0.00,WUHU216HW,2013-08-21 20:30:00,
2013-08-21 13:35:00,96.5,57.8,27.30,SE,135,0.7,4.7,28,0.00,,,0.00,WUHU216HW,2013-08-21 20:35:00,
2013-08-21 13:40:00,96.8,58.2,27.30,SW,225,2.7,4.7,28,0.00,,,0.00,WUHU216HW,2013-08-21 20:40:00,
2013-08-21 13:45:00,97.4,57.5,27.30,SSW,203,1.6,3.8,27,0.00,,,0.00,WUHU216HW,2013-08-21 20:45:00,
2013-08-21 13:50:00,97.0,57.2,27.30,SSE,158,1.6,4.7,27,0.00,,,0.00,WUHU216HW,2013-08-21 20:50:00,
2013-08-21 13:55:00,97.2,57.3,27.29,SSE,158,4.0,4.7,27,0.00,,,0.00,WUHU216HW,2013-08-21 20:55:00,
2013-08-21 14:00:00,96.8,57.0,27.29,SW,225,1.6,4.7,27,0.00,,,0.00,WUHU216HW,2013-08-21 21:00:00,
2013-08-21 14:05:00,97.4,57.5,27.29,ESE,113,3.6,5.4,27,0.00,,,0.00,WUHU216HW,2013-08-21 21:05:00,
2013-08-21 14:10:00,97.4,56.3,27.29,SW,225,3.1,5.4,26,0.00,,,0.00,WUHU216HW,2013-08-21 21:10:00,
2013-08-21 14:15:00,97.0,57.2,27.29,SSE,158,2.2,4.9,27,0.00,,,0.00,WUHU216HW,2013-08-21 21:15:00,
2013-08-21 14:20:00,96.5,55.6,27.28,SSW,203,2.0,4.9,26,0.00,,,0.00,WUHU216HW,2013-08-21 21:20:00,
2013-08-21 14:25:00,95.9,56.3,27.28,South,180,1.6,4.7,27,0.00,,,0.00,WUHU216HW,2013-08-21 21:25:00,
2013-08-21 14:30:00,96.3,56.5,27.27,SSW,203,2.2,3.6,27,0.00,,,0.00,WUHU216HW,2013-08-21 21:30:00,
2013-08-21 14:35:00,97.6,56.5,27.27,SSW,203,3.6,5.8,26,0.00,,,0.00,WUHU216HW,2013-08-21 21:35:00,
2013-08-21 14:40:00,98.6,57.4,27.27,SW,225,2.0,5.8,26,0.00,,,0.00,WUHU216HW,2013-08-21 21:40:00,
2013-08-21 14:45:00,99.0,56.6,27.27,SE,135,2.2,5.4,25,0.00,,,0.00,WUHU216HW,2013-08-21 21:45:00,
2013-08-21 14:50:00,99.2,56.8,27.27,SSE,158,1.3,5.4,25,0.00,,,0.00,WUHU216HW,2013-08-21 21:50:00,
2013-08-21 14:55:00,98.6,57.4,27.26,SE,135,3.4,6.9,26,0.00,,,0.00,WUHU216HW,2013-08-21 21:55:00,
2013-08-21 15:00:00,99.4,57.0,27.26,ENE,68,3.4,6.9,25,0.00,,,0.00,WUHU216HW,2013-08-21 22:00:00,
2013-08-21 15:05:00,99.4,55.8,27.26,SSE,158,2.5,5.1,24,0.00,,,0.00,WUHU216HW,2013-08-21 22:05:00,
2013-08-21 15:10:00,100.8,57.1,27.25,SSE,158,1.8,5.1,24,0.00,,,0.00,WUHU216HW,2013-08-21 22:10:00,
2013-08-21 15:15:00,103.3,58.0,27.25,SE,135,1.1,4.7,23,0.00,,,0.00,WUHU216HW,2013-08-21 22:15:00,
2013-08-21 15:20:00,104.6,57.8,27.25,SW,225,2.0,5.4,22,0.00,,,0.00,WUHU216HW,2013-08-21 22:20:00,
2013-08-21 15:25:00,105.5,56.3,27.25,SW,225,5.8,6.5,20,0.00,,,0.00,WUHU216HW,2013-08-21 22:25:00,
2013-08-21 15:30:00,105.1,57.1,27.25,SE,135,4.3,6.5,21,0.00,,,0.00,WUHU216HW,2013-08-21 22:30:00,
2013-08-21 15:35:00,104.9,58.2,27.24,SW,225,2.5,7.2,22,0.00,,,0.00,WUHU216HW,2013-08-21 22:35:00,
2013-08-21 15:40:00,103.7,57.1,27.24,SW,225,6.9,7.2,22,0.00,,,0.00,WUHU216HW,2013-08-21 22:40:00,
2013-08-21 15:45:00,102.4,56.1,27.24,NW,315,3.1,6.9,22,0.00,,,0.00,WUHU216HW,2013-08-21 22:45:00,
2013-08-21 15:50:00,100.8,55.9,27.24,SSW,203,1.6,6.9,23,0.00,,,0.00,WUHU216HW,2013-08-21 22:50:00,
2013-08-21 15:55:00,100.6,55.7,27.24,WSW,248,5.4,7.4,23,0.00,,,0.00,WUHU216HW,2013-08-21 22:55:00,
2013-08-21 16:00:00,99.9,55.2,27.24,SW,225,6.7,7.6,23,0.00,,,0.00,WUHU216HW,2013-08-21 23:00:00,
2013-08-21 16:05:00,98.6,55.3,27.23,South,180,5.8,7.6,24,0.00,,,0.00,WUHU216HW,2013-08-21 23:05:00,
2013-08-21 16:10:00,97.2,55.1,27.23,SSE,158,5.8,7.4,25,0.00,,,0.00,WUHU216HW,2013-08-21 23:10:00,
2013-08-21 16:15:00,97.0,55.0,27.23,WSW,248,3.6,7.4,25,0.00,,,0.00,WUHU216HW,2013-08-21 23:15:00,
2013-08-21 16:20:00,96.8,54.8,27.23,SSE,158,4.0,7.6,25,0.00,,,0.00,WUHU216HW,2013-08-21 23:20:00,
2013-08-21 16:25:00,96.8,54.8,27.23,SE,135,3.4,7.6,25,0.00,,,0.00,WUHU216HW,2013-08-21 23:25:00,
2013-08-21 16:30:00,97.2,55.1,27.23,South,180,8.5,8.5,25,0.00,,,0.00,WUHU216HW,2013-08-21 23:30:00,
2013-08-21 16:35:00,97.2,55.1,27.23,ESE,113,2.7,8.5,25,0.00,,,0.00,WUHU216HW,2013-08-21 23:35:00,
2013-08-21 16:40:00,97.0,55.0,27.23,SW,225,2.5,8.5,25,0.00,,,0.00,WUHU216HW,2013-08-21 23:40:00,
2013-08-21 16:45:00,97.0,55.0,27.23,South,180,2.9,5.8,25,0.00,,,0.00,WUHU216HW,2013-08-21 23:45:00,
2013-08-21 16:50:00,97.0,55.0,27.23,SSW,203,5.4,6.3,25,0.00,,,0.00,WUHU216HW,2013-08-21 23:50:00,
2013-08-21 16:55:00,96.5,54.6,27.23,SW,225,4.3,6.3,25,0.00,,,0.00,WUHU216HW,2013-08-21 23:55:00,
2013-08-21 17:00:00,96.1,54.2,27.23,SE,135,4.0,5.6,25,0.00,,,0.00,WUHU216HW,2013-08-22 00:00:00,
2013-08-21 17:05:00,95.9,54.0,27.23,SSE,158,4.0,6.3,25,0.00,,,0.00,WUHU216HW,2013-08-22 00:05:00,
2013-08-21 17:10:00,95.2,54.5,27.23,SW,225,2.9,6.3,26,0.00,,,0.00,WUHU216HW,2013-08-22 00:10:00,
2013-08-21 17:15:00,95.0,54.4,27.23,South,180,3.8,5.8,26,0.00,,,0.00,WUHU216HW,2013-08-22 00:15:00,
2013-08-21 17:20:00,95.0,54.4,27.23,WSW,248,2.9,5.8,26,0.00,,,0.00,WUHU216HW,2013-08-22 00:20:00,
2013-08-21 17:25:00,95.4,54.7,27.23,SW,225,4.7,5.8,26,0.00,,,0.00,WUHU216HW,2013-08-22 00:25:00,
2013-08-21 17:30:00,95.0,54.4,27.23,SSE,158,2.5,5.8,26,0.00,,,0.00,WUHU216HW,2013-08-22 00:30:00,
2013-08-21 17:35:00,95.0,54.4,27.23,South,180,3.8,5.1,26,0.00,,,0.00,WUHU216HW,2013-08-22 00:35:00,
2013-08-21 17:40:00,94.5,53.9,27.23,SSE,158,4.3,5.4,26,0.00,,,0.00,WUHU216HW,2013-08-22 00:40:00,
2013-08-21 17:45:00,94.3,53.8,27.24,NE,45,2.2,5.4,26,0.00,,,0.00,WUHU216HW,2013-08-22 00:45:00,
2013-08-21 17:50:00,94.3,53.8,27.24,SSW,203,2.9,4.5,26,0.00,,,0.00,WUHU216HW,2013-08-22 00:50:00,
2013-08-21 17:55:00,94.0,54.5,27.24,ESE,113,4.5,7.6,27,0.00,,,0.00,WUHU216HW,2013-08-22 00:55:00,
2013-08-21 18:00:00,93.4,54.1,27.24,SSW,203,4.7,7.6,27,0.00,,,0.00,WUHU216HW,2013-08-22 01:00:00,
2013-08-21 18:05:00,93.2,53.9,27.24,NNW,338,1.3,6.7,27,0.00,,,0.00,WUHU216HW,2013-08-22 01:05:00,
2013-08-21 18:10:00,93.1,53.8,27.24,SW,225,4.0,5.6,27,0.00,,,0.00,WUHU216HW,2013-08-22 01:10:00,
2013-08-21 18:15:00,92.7,53.6,27.24,SW,225,5.1,5.6,27,0.00,,,0.00,WUHU216HW,2013-08-22 01:15:00,
2013-08-21 18:20:00,92.5,53.4,27.24,NNE,23,2.2,5.1,27,0.00,,,0.00,WUHU216HW,2013-08-22 01:20:00,
2013-08-21 18:25:00,92.2,54.2,27.24,SW,225,4.0,5.4,28,0.00,,,0.00,WUHU216HW,2013-08-22 01:25:00,
2013-08-21 18:30:00,92.2,55.3,27.24,South,180,3.4,5.4,29,0.00,,,0.00,WUHU216HW,2013-08-22 01:30:00,
2013-08-21 18:35:00,91.8,55.0,27.24,South,180,2.5,5.6,29,0.00,,,0.00,WUHU216HW,2013-08-22 01:35:00,
2013-08-21 18:40:00,91.6,54.8,27.24,SSW,203,1.1,5.6,29,0.00,,,0.00,WUHU216HW,2013-08-22 01:40:00,
2013-08-21 18:45:00,91.4,54.7,27.24,SSE,158,3.4,4.9,29,0.00,,,0.00,WUHU216HW,2013-08-22 01:45:00,
2013-08-21 18:50:00,91.3,55.6,27.24,WSW,248,1.8,5.6,30,0.00,,,0.00,WUHU216HW,2013-08-22 01:50:00,
2013-08-21 18:55:00,90.9,55.4,27.25,WSW,248,2.5,5.6,30,0.00,,,0.00,WUHU216HW,2013-08-22 01:55:00,
2013-08-21 19:00:00,90.7,55.2,27.25,South,180,2.0,6.0,30,0.00,,,0.00,WUHU216HW,2013-08-22 02:00:00,
2013-08-21 19:05:00,90.7,55.2,27.25,SSW,203,3.6,6.0,30,0.00,,,0.00,WUHU216HW,2013-08-22 02:05:00,
2013-08-21 19:10:00,90.5,55.0,27.25,SSE,158,2.2,5.1,30,0.00,,,0.00,WUHU216HW,2013-08-22 02:10:00,
2013-08-21 19:15:00,90.4,54.8,27.25,South,180,2.2,4.0,30,0.00,,,0.00,WUHU216HW,2013-08-22 02:15:00,
2013-08-21 19:20:00,90.4,54.8,27.26,SSW,203,1.3,3.4,30,0.00,,,0.00,WUHU216HW,2013-08-22 02:20:00,
2013-08-21 19:25:00,90.2,54.6,27.26,South,180,2.5,3.4,30,0.00,,,0.00,WUHU216HW,2013-08-22 02:25:00,
2013-08-21 19:30:00,90.0,55.3,27.26,South,180,1.8,2.5,31,0.00,,,0.00,WUHU216HW,2013-08-22 02:30:00,
2013-08-21 19:35:00,89.8,55.2,27.26,SE,135,1.1,3.8,31,0.00,,,0.00,WUHU216HW,2013-08-22 02:35:00,
2013-08-21 19:40:00,89.6,54.2,27.26,SE,135,1.8,3.8,30,0.00,,,0.00,WUHU216HW,2013-08-22 02:40:00,
2013-08-21 19:45:00,89.5,54.0,27.26,SSW,203,0.4,2.9,30,0.00,,,0.00,WUHU216HW,2013-08-22 02:45:00,
2013-08-21 19:50:00,89.3,53.8,27.26,SSW,203,0.7,2.0,30,0.00,,,0.00,WUHU216HW,2013-08-22 02:50:00,
2013-08-21 19:55:00,89.1,53.7,27.26,SSW,203,0.9,2.5,30,0.00,,,0.00,WUHU216HW,2013-08-22 02:55:00,
2013-08-21 20:00:00,88.9,53.6,27.26,South,180,2.5,2.5,30,0.00,,,0.00,WUHU216HW,2013-08-22 03:00:00,
2013-08-21 20:05:00,88.9,55.2,27.26,ENE,68,0.4,2.5,32,0.00,,,0.00,WUHU216HW,2013-08-22 03:05:00,
2013-08-21 20:10:00,88.7,55.0,27.26,SSE,158,0.0,2.2,32,0.00,,,0.00,WUHU216HW,2013-08-22 03:10:00,
2013-08-21 20:15:00,88.4,54.6,27.27,SE,135,0.0,1.1,32,0.00,,,0.00,WUHU216HW,2013-08-22 03:15:00,
2013-08-21 20:20:00,88.4,54.6,27.27,SSE,158,0.2,1.1,32,0.00,,,0.00,WUHU216HW,2013-08-22 03:20:00,
2013-08-21 20:25:00,88.2,53.7,27.27,SE,135,0.2,1.1,31,0.00,,,0.00,WUHU216HW,2013-08-22 03:25:00,
2013-08-21 20:30:00,88.0,53.6,27.27,SSE,158,0.0,1.1,31,0.00,,,0.00,WUHU216HW,2013-08-22 03:30:00,
2013-08-21 20:35:00,87.8,54.2,27.27,South,180,1.8,1.8,32,0.00,,,0.00,WUHU216HW,2013-08-22 03:35:00,
2013-08-21 20:40:00,87.8,54.2,27.27,SE,135,0.9,1.8,32,0.00,,,0.00,WUHU216HW,2013-08-22 03:40:00,
2013-08-21 20:45:00,87.5,53.9,27.28,SSE,158,0.0,1.8,32,0.00,,,0.00,WUHU216HW,2013-08-22 03:45:00,
2013-08-21 20:50:00,87.3,53.7,27.28,SSE,158,0.0,1.3,32,0.00,,,0.00,WUHU216HW,2013-08-22 03:50:00,
2013-08-21 20:55:00,87.1,53.6,27.28,SSE,158,0.0,1.3,32,0.00,,,0.00,WUHU216HW,2013-08-22 03:55:00,
2013-08-21 21:00:00,86.9,53.5,27.28,SE,135,0.4,1.1,32,0.00,,,0.00,WUHU216HW,2013-08-22 04:00:00,
2013-08-21 21:01:00,86.9,53.5,27.28,SE,135,0.0,1.1,32,0.00,,,0.00,WUHU216HW,2013-08-22 04:01:00,
2013-08-21 21:06:00,86.8,53.3,27.28,SE,135,0.0,1.1,32,0.00,,,0.00,WUHU216HW,2013-08-22 04:06:00,
2013-08-21 21:11:00,86.4,53.8,27.28,SE,135,0.0,0.0,33,0.00,,,0.00,WUHU216HW,2013-08-22 04:11:00,
2013-08-21 21:16:00,86.0,53.5,27.28,SE,135,0.0,0.0,33,0.00,,,0.00,WUHU216HW,2013-08-22 04:16:00,
2013-08-21 21:21:00,85.7,53.2,27.28,SE,135,0.0,0.0,33,0.00,,,0.00,WUHU216HW,2013-08-22 04:21:00,
2013-08-21 21:26:00,85.7,53.2,27.28,SE,135,0.0,0.0,33,0.00,,,0.00,WUHU216HW,2013-08-22 04:26:00,
2013-08-21 21:31:00,85.5,53.8,27.29,SE,135,0.0,0.0,34,0.00,,,0.00,WUHU216HW,2013-08-22 04:31:00,
2013-08-21 21:36:00,85.3,53.6,27.29,SE,135,0.0,0.0,34,0.00,,,0.00,WUHU216HW,2013-08-22 04:36:00,
2013-08-21 21:41:00,85.1,53.5,27.30,North,0,0.7,0.7,34,0.00,,,0.00,WUHU216HW,2013-08-22 04:41:00,
2013-08-21 21:46:00,85.1,53.5,27.30,North,0,0.0,2.0,34,0.00,,,0.00,WUHU216HW,2013-08-22 04:46:00,
2013-08-21 21:51:00,84.8,53.2,27.30,North,0,0.0,2.0,34,0.00,,,0.00,WUHU216HW,2013-08-22 04:51:00,
2013-08-21 21:56:00,84.4,52.8,27.30,NNW,338,1.1,1.3,34,0.00,,,0.00,WUHU216HW,2013-08-22 04:56:00,
2013-08-21 22:01:00,84.4,53.7,27.30,NNW,338,0.9,1.6,35,0.00,,,0.00,WUHU216HW,2013-08-22 05:01:00,
2013-08-21 22:06:00,84.6,53.8,27.30,NNW,338,0.4,1.8,35,0.00,,,0.00,WUHU216HW,2013-08-22 05:06:00,
2013-08-21 22:11:00,84.2,55.1,27.30,NNW,338,1.1,1.8,37,0.00,,,0.00,WUHU216HW,2013-08-22 05:11:00,
2013-08-21 22:16:00,84.2,55.1,27.30,North,0,0.4,1.8,37,0.00,,,0.00,WUHU216HW,2013-08-22 05:16:00,
2013-08-21 22:21:00,84.2,55.1,27.30,NNW,338,0.7,1.8,37,0.00,,,0.00,WUHU216HW,2013-08-22 05:21:00,
2013-08-21 22:26:00,83.9,54.7,27.30,NNW,338,0.0,1.6,37,0.00,,,0.00,WUHU216HW,2013-08-22 05:26:00,
2013-08-21 22:31:00,83.9,55.5,27.31,North,0,0.0,1.6,38,0.00,,,0.00,WUHU216HW,2013-08-22 05:31:00,
2013-08-21 22:36:00,83.9,56.4,27.31,North,0,0.7,1.3,39,0.00,,,0.00,WUHU216HW,2013-08-22 05:36:00,
2013-08-21 22:41:00,83.9,56.4,27.31,North,0,0.7,1.8,39,0.00,,,0.00,WUHU216HW,2013-08-22 05:41:00,
2013-08-21 22:46:00,83.9,56.4,27.31,North,0,1.3,1.8,39,0.00,,,0.00,WUHU216HW,2013-08-22 05:46:00,
2013-08-21 22:51:00,83.9,56.4,27.31,North,0,1.6,2.5,39,0.00,,,0.00,WUHU216HW,2013-08-22 05:51:00,
2013-08-21 22:56:00,83.9,56.4,27.31,North,0,0.7,2.5,39,0.00,,,0.00,WUHU216HW,2013-08-22 05:56:00,
2013-08-21 23:01:00,83.7,56.2,27.31,North,0,0.0,1.6,39,0.00,,,0.00,WUHU216HW,2013-08-22 06:01:00,
2013-08-21 23:06:00,83.5,56.0,27.31,North,0,0.0,1.1,39,0.00,,,0.00,WUHU216HW,2013-08-22 06:06:00,
2013-08-21 23:11:00,83.3,55.8,27.31,NNW,338,0.0,1.3,39,0.00,,,0.00,WUHU216HW,2013-08-22 06:11:00,
2013-08-21 23:16:00,83.2,55.6,27.31,NNW,338,1.6,2.2,39,0.00,,,0.00,WUHU216HW,2013-08-22 06:16:00,
2013-08-21 23:21:00,83.2,55.6,27.31,NNW,338,1.1,2.2,39,0.00,,,0.00,WUHU216HW,2013-08-22 06:21:00,
2013-08-21 23:26:00,83.2,56.4,27.31,North,0,0.4,1.8,40,0.00,,,0.00,WUHU216HW,2013-08-22 06:26:00,
2013-08-21 23:31:00,83.0,56.3,27.31,NNW,338,0.0,1.6,40,0.00,,,0.00,WUHU216HW,2013-08-22 06:31:00,
2013-08-21 23:36:00,83.2,57.1,27.31,NNW,338,0.7,1.6,41,0.00,,,0.00,WUHU216HW,2013-08-22 06:36:00,
2013-08-21 23:41:00,83.2,57.1,27.30,NW,315,0.4,1.1,41,0.00,,,0.00,WUHU216HW,2013-08-22 06:41:00,
2013-08-21 23:46:00,83.2,57.1,27.30,North,0,0.4,1.3,41,0.00,,,0.00,WUHU216HW,2013-08-22 06:46:00,
2013-08-21 23:51:00,83.0,56.9,27.30,North,0,0.0,1.3,41,0.00,,,0.00,WUHU216HW,2013-08-22 06:51:00,
2013-08-21 23:56:00,83.0,57.5,27.30,NNW,338,0.2,1.1,42,0.00,,,0.00,WUHU216HW,2013-08-22 06:56:00,